Location: Bailleul
(50.3375°N, 2.8513°E)
Time: 19:40:06
(UTC+00:00)

Sich 1 - Visible Passes

Search period start: 23 July 2021 00:00
Search period end: 02 August 2021 00:00
Orbit: 593 x 625 km, 82.5° (Epoch: 23 July)

Date Brightness Start Highest point End Pass type
(mag) Time Alt. Az. Time Alt. Az. Time Alt. Az.
23 Jul 4.8 01:03:25 16° WSW 01:05:26 22° WNW 01:08:53 10° NNW visible
23 Jul 3.0 23:40:41 49° S 23:41:47 76° E 23:46:10 10° NNE visible
24 Jul 5.4 01:17:37 10° W 01:20:01 15° WNW 01:22:30 10° NNW visible
24 Jul 5.0 22:17:56 14° E 22:18:59 15° E 22:21:27 10° NE visible
24 Jul 3.2 23:54:53 44° SW 23:56:07 67° WNW 00:00:28 10° N visible
25 Jul 4.5 22:32:07 22° ESE 22:33:04 23° E 22:36:32 10° NE visible
26 Jul 3.9 00:09:04 31° WSW 00:10:30 41° WNW 00:14:39 10° N visible
26 Jul 3.8 22:46:18 33° ESE 22:47:13 37° E 22:51:14 10° NNE visible
27 Jul 4.6 00:23:15 21° WSW 00:24:58 26° WNW 00:28:41 10° N visible
27 Jul 3.2 23:00:28 47° SSE 23:01:26 60° E 23:05:44 10° NNE visible
28 Jul 5.2 00:37:25 13° W 00:39:31 18° WNW 00:42:28 10° NNW visible
28 Jul 5.2 21:37:41 11° E 21:38:43 12° E 21:40:25 10° ENE visible
28 Jul 3.0 23:14:38 50° SSW 23:15:44 83° WNW 23:20:05 10° N visible
29 Jul 5.6 00:52:39 10° W 00:54:08 11° WNW 00:55:39 10° NW visible
29 Jul 4.7 21:51:50 18° ESE 21:52:47 19° E 21:55:51 10° NE visible
29 Jul 3.6 23:28:46 37° SW 23:30:05 50° WNW 23:34:20 10° N visible
30 Jul 4.1 22:05:57 27° ESE 22:06:53 30° E 22:10:41 10° NNE visible
30 Jul 4.4 23:42:54 24° WSW 23:44:30 32° WNW 23:48:26 10° N visible
31 Jul 3.4 22:20:04 40° SE 22:21:05 48° E 22:25:16 10° NNE visible
31 Jul 5.1 23:57:00 16° WSW 23:59:01 21° WNW 00:02:20 10° NNW visible
01 Aug 2.9 22:34:10 48° S 22:35:21 80° E 22:39:41 10° NNE visible
